Location: Branche des Alpilles
(43.6087°N, 4.6976°E)
Time: 05:27:32
(UTC+00:00)

Cosmos 2228 Rocket - Pass Details

Date: 30 November 2020
Orbit: 618 x 652 km, 82.5° (Epoch: 24 January)

Event Time Altitude Azimuth Distance (km) Brightness Sun altitude
Rises 18:41:16 0° 204° (SSW) 2,950 6.9 -27.5°
Reaches altitude 10° 18:43:36 10° 211° (SSW) 2,041 6.1 -27.9°
Maximum altitude 18:47:55 43° 283° (WNW) 904 4.2 -28.7°
Enters shadow 18:48:55 37° 317° (NW) 996 4.3 -28.9°
